Ogdensburg, NY

3:17 AM EDT on September 19, 2019 (GMT -0400)
Ogdensburg International

Weather History for KOGS - August, 2019

Change the Weather History Date:

Sunday, August 25, 2019

  Actual Average Record
Temperature  
Mean Temperature 60 °F -  
Max Temperature 77 °F 78 °F 89 °F (1993)
Min Temperature 44 °F 54 °F 39 °F (1971)
Degree Days  
Heating Degree Days 4    
Growing Degree Days 10 (Base 50)    
Moisture  
Dew Point 53 °F    
Average Humidity 77    
Maximum Humidity 100    
Minimum Humidity 44    
Precipitation  
Precipitation 0.00 in - - ()
Sea Level Pressure  
Sea Level Pressure 30.28 in    
Wind  
Wind Speed 1 mph ()    
Max Wind Speed 8 mph    
Max Gust Speed -    
Visibility 8.7 miles    
Events      
Averages and records for this station are not official NWS values.
T = Trace of Precipitation, MM = Missing Value Source: Averaged Metar Reports

Daily Weather History Graph

Daily Weather History Graph

Search for Another Location

Airport or City:

Astronomy

Aug. 25, 2019 Rise Set
Actual Time 6:15 AM EDT 7:51 PM EDT
Civil Twilight 5:45 AM EDT 8:22 PM EDT
Nautical Twilight 5:07 AM EDT 8:59 PM EDT
Astronomical Twilight 4:27 AM EDT 9:39 PM EDT
Moon 12:41 AM EDT (8/25) 4:18 PM EDT (8/25)
Length of Visible Light 14h 36m
Length of Day
13h 35m
Waning Crescent, 29% of the Moon is Illuminated
Aug 25
Waning Crescent
Aug 30
New
Sep 5
First Quarter
Sep 14
Full
Sep 21
Last Quarter

Hourly Weather History & Observations

Time (EDT) Temp. Dew Point Humidity Pressure Visibility Wind Dir Wind Speed Gust Speed Precip Events Conditions
12:15 AM 51.8 °F 50.0 °F 94% 30.30 in 10.0 mi Calm Calm - N/A   Partly Cloudy
12:35 AM 50.0 °F 48.2 °F 94% 30.30 in 10.0 mi Calm Calm - N/A   Partly Cloudy
12:55 AM 48.2 °F 48.2 °F 100% 30.29 in 8.0 mi Calm Calm - N/A   Partly Cloudy
1:15 AM 48.2 °F 48.2 °F 100% 30.29 in 9.0 mi Calm Calm - N/A   Partly Cloudy
1:35 AM 48.2 °F 48.2 °F 100% 30.29 in 9.0 mi Calm Calm - N/A   Unknown
1:55 AM 48.2 °F 46.4 °F 93% 30.29 in 8.0 mi Calm Calm - N/A   Partly Cloudy
2:15 AM 48.2 °F 46.4 °F 93% 30.29 in 1.0 mi Calm Calm - N/A   Scattered Clouds
2:35 AM 48.2 °F 46.4 °F 93% 30.29 in 9.0 mi Calm Calm - N/A   Partly Cloudy
2:55 AM 46.4 °F 46.4 °F 100% 30.29 in 4.0 mi Calm Calm - N/A   Scattered Clouds
3:15 AM 48.2 °F 46.4 °F 93% 30.29 in 2.0 mi Calm Calm - N/A   Partly Cloudy
3:35 AM 46.4 °F 46.4 °F 100% 30.29 in 8.0 mi Calm Calm - N/A   Partly Cloudy
3:55 AM 46.4 °F 46.4 °F 100% 30.29 in 8.0 mi Calm Calm - N/A   Partly Cloudy
4:15 AM 48.2 °F 46.4 °F 93% 30.29 in 4.0 mi Calm Calm - N/A   Partly Cloudy
4:35 AM 46.4 °F 44.6 °F 93% 30.29 in 6.0 mi Calm Calm - N/A   Partly Cloudy
4:55 AM 44.6 °F 44.6 °F 100% 30.29 in 4.0 mi Calm Calm - N/A   Partly Cloudy
5:15 AM 46.4 °F 44.6 °F 93% 30.29 in 3.0 mi Calm Calm - N/A   Partly Cloudy
5:35 AM 44.6 °F 44.6 °F 100% 30.30 in 6.0 mi Calm Calm - N/A   Partly Cloudy
5:55 AM 46.4 °F 44.6 °F 93% 30.31 in 3.0 mi Calm Calm - N/A   Partly Cloudy
6:15 AM 46.4 °F 44.6 °F 93% 30.32 in 2.0 mi Calm Calm - N/A   Partly Cloudy
6:35 AM 46.4 °F 46.4 °F 100% 30.32 in 2.5 mi Calm Calm - N/A   Clear
6:55 AM 46.4 °F 46.4 °F 100% 30.32 in 5.0 mi Calm Calm - N/A   Clear
7:15 AM 50.0 °F 50.0 °F 100% 30.33 in 6.0 mi Calm Calm - N/A   Clear
7:35 AM 51.8 °F 51.8 °F 100% 30.34 in 9.0 mi Calm Calm - N/A   Clear
7:55 AM 55.4 °F 53.6 °F 94% 30.34 in 10.0 mi Calm Calm - N/A   Partly Cloudy
8:15 AM 57.2 °F 55.4 °F 94% 30.34 in 10.0 mi Calm Calm - N/A   Partly Cloudy
8:35 AM 59.0 °F 55.4 °F 88% 30.34 in 10.0 mi Calm Calm - N/A   Clear
8:55 AM 62.6 °F 57.2 °F 82% 30.34 in 10.0 mi ENE 5.8 mph - N/A   Clear
9:15 AM 64.4 °F 57.2 °F 77% 30.34 in 10.0 mi ENE 4.6 mph - N/A   Clear
9:35 AM 66.2 °F 57.2 °F 73% 30.34 in 10.0 mi NE 3.5 mph - N/A   Clear
9:55 AM 66.2 °F 57.2 °F 73% 30.33 in 10.0 mi Variable 3.5 mph - N/A   Clear
10:15 AM 68.0 °F 57.2 °F 68% 30.33 in 10.0 mi Calm Calm - N/A   Clear
10:35 AM 69.8 °F 57.2 °F 64% 30.33 in 10.0 mi Calm Calm - N/A   Clear
10:55 AM 69.8 °F 57.2 °F 64% 30.33 in 10.0 mi Calm Calm - N/A   Clear
11:15 AM 71.6 °F 55.4 °F 57% 30.33 in 10.0 mi Calm Calm - N/A   Clear
11:35 AM 71.6 °F 57.2 °F 60% 30.33 in 10.0 mi Variable 3.5 mph - N/A   Clear
11:55 AM 71.6 °F 57.2 °F 60% 30.32 in 10.0 mi Variable 4.6 mph - N/A   Clear
12:15 PM 71.6 °F 57.2 °F 60% 30.31 in 10.0 mi NE 6.9 mph - N/A   Clear
12:35 PM 73.4 °F 57.2 °F 57% 30.31 in 10.0 mi ENE 5.8 mph - N/A   Clear
12:55 PM 71.6 °F 57.2 °F 60% 30.30 in 10.0 mi Variable 4.6 mph - N/A   Clear
1:15 PM 75.2 °F 55.4 °F 50% 30.30 in 10.0 mi NNE 5.8 mph - N/A   Clear
1:35 PM 73.4 °F 57.2 °F 57% 30.29 in 10.0 mi Calm Calm - N/A   Clear
1:55 PM 75.2 °F 53.6 °F 47% 30.28 in 10.0 mi ENE 3.5 mph - N/A   Clear
2:15 PM 75.2 °F 55.4 °F 50% 30.27 in 10.0 mi Variable 3.5 mph - N/A   Clear
2:35 PM 77.0 °F 55.4 °F 47% 30.27 in 10.0 mi Variable 3.5 mph - N/A   Clear
2:55 PM 77.0 °F 55.4 °F 47% 30.26 in 10.0 mi Variable 5.8 mph - N/A   Clear
3:15 PM 75.2 °F 53.6 °F 47% 30.26 in 10.0 mi NNW 5.8 mph - N/A   Clear
3:35 PM 77.0 °F 53.6 °F 44% 30.25 in 10.0 mi Calm Calm - N/A   Clear
3:55 PM 77.0 °F 53.6 °F 44% 30.24 in 10.0 mi North 5.8 mph - N/A   Clear
4:15 PM 77.0 °F 55.4 °F 47% 30.23 in 10.0 mi Variable 5.8 mph - N/A   Clear
4:35 PM 77.0 °F 55.4 °F 47% 30.23 in 10.0 mi Variable 8.1 mph - N/A   Clear
4:55 PM 77.0 °F 55.4 °F 47% 30.23 in 10.0 mi North 8.1 mph - N/A   Clear
5:15 PM 77.0 °F 55.4 °F 47% 30.22 in 10.0 mi North 5.8 mph - N/A   Clear
5:35 PM 77.0 °F 53.6 °F 44% 30.23 in 10.0 mi Variable 6.9 mph - N/A   Clear
5:55 PM 75.2 °F 55.4 °F 50% 30.23 in 10.0 mi Variable 4.6 mph - N/A   Clear
6:15 PM 75.2 °F 55.4 °F 50% 30.22 in 10.0 mi NNE 4.6 mph - N/A   Clear
6:35 PM 73.4 °F 55.4 °F 53% 30.22 in 10.0 mi NE 4.6 mph - N/A   Clear
6:55 PM 71.6 °F 57.2 °F 60% 30.22 in 10.0 mi ENE 4.6 mph - N/A   Clear
7:15 PM 71.6 °F 57.2 °F 60% 30.22 in 10.0 mi NE 3.5 mph - N/A   Clear
7:35 PM 68.0 °F 59.0 °F 73% 30.22 in 10.0 mi NE 3.5 mph - N/A   Clear
7:55 PM 62.6 °F 59.0 °F 88% 30.23 in 10.0 mi ENE 3.5 mph - N/A   Clear
8:15 PM 62.6 °F 57.2 °F 82% 30.23 in 10.0 mi Calm Calm - N/A   Clear
8:35 PM 59.0 °F 57.2 °F 94% 30.23 in 10.0 mi Calm Calm - N/A   Clear
8:55 PM 59.0 °F 55.4 °F 88% 30.23 in 10.0 mi ENE 4.6 mph - N/A   Clear
9:15 PM 59.0 °F 55.4 °F 88% 30.24 in 10.0 mi ENE 3.5 mph - N/A   Clear
9:35 PM 57.2 °F 55.4 °F 94% 30.23 in 10.0 mi Calm Calm - N/A   Clear
9:55 PM 57.2 °F 55.4 °F 94% 30.23 in 10.0 mi Calm Calm - N/A   Clear
10:15 PM 57.2 °F 55.4 °F 94% 30.23 in 10.0 mi ENE 3.5 mph - N/A   Clear
10:35 PM 57.2 °F 55.4 °F 94% 30.23 in 10.0 mi Calm Calm - N/A   Clear
10:55 PM 57.2 °F 55.4 °F 94% 30.23 in 10.0 mi Calm Calm - N/A   Clear
11:15 PM 55.4 °F 53.6 °F 94% 30.23 in 10.0 mi Calm Calm - N/A   Clear
11:35 PM 53.6 °F 53.6 °F 100% 30.23 in 10.0 mi Calm Calm - N/A   Partly Cloudy
11:55 PM 53.6 °F 53.6 °F 100% 30.23 in 10.0 mi Calm Calm - N/A   Partly Cloudy